Theta_e
302 307 310 304 303 305 306 308 307 308 309 310 310 307 308 309 310 309 310 308 308 312 313 314 315 317 318 319 319 319 343 344 344 343 342 340 339 339 339 337 337 337 337 337
302 303 306 309 307 306 306 306 306 307 309 310 308 307 306 307 307 308 308 308 308 308 310 311 313 314 316 319 320 321 344 344 343 343 341 340 339 338 337 338 336 335 334 334
306 305 307 307 309 310 309 307 306 307 309 308 308 309 307 309 309 309 310 309 310 309 309 310 312 313 314 319 320 330 344 343 342 341 339 338 338 337 336 336 337 336 334 332
305 307 307 307 307 306 305 309 308 307 309 310 309 310 308 308 310 310 311 313 311 310 311 317 321 321 320 319 320 331 344 343 341 340 338 338 336 335 335 335 334 334 333 332
301 302 304 306 306 307 308 307 311 309 309 310 309 308 309 310 311 312 315 311 312 313 323 324 323 322 324 323 322 332 343 342 340 339 338 336 335 334 334 334 333 332 331 331
300 303 305 307 307 306 306 308 312 313 311 312 312 311 310 311 312 314 322 325 325 324 323 323 323 323 324 324 321 324 341 342 340 339 337 336 335 335 332 332 331 331 329 328
305 306 306 307 307 308 309 309 315 317 317 315 312 312 312 313 313 320 326 323 322 321 321 320 320 320 321 322 322 324 328 340 339 337 336 336 335 335 333 332 330 329 329 328
308 308 306 307 307 311 309 310 317 317 318 316 313 314 314 313 315 323 323 321 320 319 318 316 316 317 317 325 324 327 335 338 337 337 337 337 336 335 333 332 331 330 328 327
307 304 304 304 309 311 313 315 310 318 319 322 321 320 322 321 323 321 322 319 318 315 313 312 311 312 312 325 326 329 331 335 337 337 337 336 336 335 333 332 331 330 329 328
307 306 304 305 309 313 314 314 317 319 322 323 326 326 324 320 319 321 320 316 314 311 309 307 307 308 308 310 321 326 329 330 334 335 335 336 335 332 330 329 329 328 327 326
303 306 306 308 312 314 315 315 316 318 318 325 326 326 313 317 322 321 316 313 310 307 305 304 303 304 304 305 307 314 326 327 331 333 332 331 329 328 328 328 327 325 324 323
306 308 308 308 308 312 314 314 316 317 319 319 322 321 314 317 318 315 314 312 308 305 302 301 300 300 300 300 301 304 310 326 328 328 329 328 327 327 327 326 324 322 322 321
305 307 305 307 313 313 315 314 315 318 317 321 323 320 315 316 311 310 309 307 304 302 300 298 297 298 297 298 298 300 302 307 326 327 327 326 326 326 326 325 323 320 321 320
305 307 305 306 309 310 313 314 316 318 319 322 321 317 313 310 306 304 303 301 300 298 297 296 295 295 294 295 296 297 298 301 311 325 325 325 325 325 325 324 322 321 321 320
306 309 308 307 307 309 310 313 318 320 317 320 314 309 309 303 302 299 299 298 297 296 294 294 293 293 292 293 293 295 296 298 304 322 324 325 324 324 323 323 322 322 320 320
307 310 313 315 314 315 317 317 314 312 312 312 311 307 304 300 297 296 295 294 294 293 292 291 291 291 291 291 292 293 294 295 298 304 318 323 325 324 323 323 323 322 321 319
310 311 314 316 314 314 317 313 309 306 305 307 307 302 302 297 295 293 292 292 291 291 290 289 289 290 289 290 290 291 292 292 293 295 298 308 317 319 319 319 319 315 313 315
310 312 313 312 311 315 310 307 306 304 301 301 300 299 299 294 292 292 291 290 289 289 288 288 287 287 288 288 289 290 290 291 290 291 292 295 303 303 304 306 306 305 305 303
309 311 313 313 316 312 307 303 303 309 302 299 298 296 298 295 297 291 291 289 288 288 287 286 286 286 287 287 287 287 288 289 289 288 290 290 291 294 295 293 292 293 294 294
310 310 311 311 313 312 304 299 301 302 300 297 295 294 293 295 293 290 289 289 287 286 286 285 284 285 285 287 287 286 285 285 287 287 287 288 290 289 289 289 289 288 288 287
307 308 308 310 310 306 298 298 300 298 301 296 294 292 291 290 290 289 288 287 286 285 284 284 284 284 284 286 286 286 285 284 283 284 286 287 287 288 289 289 288 288 287 286
305 307 305 306 305 304 295 297 298 299 296 294 292 291 288 287 287 287 286 286 285 285 284 283 283 283 284 284 286 286 286 284 283 282 282 283 284 285 286 287 287 287 287 286
304 306 302 302 300 296 294 293 293 292 292 292 292 289 287 286 285 286 286 285 285 284 284 283 282 282 283 283 284 285 285 284 283 282 281 281 282 282 282 283 285 285 285 284
299 300 300 300 295 294 294 292 291 290 290 290 289 288 287 286 286 285 285 285 284 283 283 282 282 281 282 282 283 283 285 284 284 283 281 280 280 280 281 281 281 282 282 282
297 298 300 298 294 292 291 291 290 290 289 288 288 287 287 286 285 284 283 283 282 282 282 281 281 280 280 281 281 282 283 284 284 284 283 281 280 279 279 279 280 280 281 281
296 295 297 295 294 291 290 289 289 288 288 288 287 286 286 285 284 283 283 282 281 280 280 279 279 279 279 279 280 281 282 282 282 283 283 283 282 280 279 278 278 279 279 280
Wind_Speed
8 10 14 9 14 19 17 19 21 19 13 13 18 11 16 12 15 18 13 9 9 11 8 11 13 27 34 40 40 31 40 40 38 36 34 32 34 30 27 30 33 28 28 30
6 20 14 12 17 19 22 25 25 22 21 17 14 12 9 9 9 14 11 10 11 9 10 9 17 20 21 31 33 29 44 44 41 38 34 27 29 29 30 24 30 34 32 30
13 11 12 16 20 23 22 20 19 19 16 8 8 15 9 16 15 24 20 17 21 18 13 9 12 19 24 25 24 28 39 42 37 33 29 21 24 20 25 31 28 32 33 30
13 12 17 20 21 19 21 17 21 21 19 8 3 15 14 11 21 24 24 28 19 11 8 7 7 2 5 16 27 30 40 40 38 38 32 33 28 21 24 23 29 33 30 30
20 15 19 23 23 20 23 19 19 21 17 3 9 6 16 11 19 22 20 11 18 8 4 11 15 10 13 13 14 29 43 41 39 39 37 34 25 23 23 24 26 31 31 29
19 17 6 10 20 24 23 18 7 15 3 9 14 9 13 15 14 13 6 12 13 13 13 15 16 26 27 31 15 30 36 35 41 39 37 35 30 26 23 26 28 28 28 28
11 13 14 18 23 22 16 16 4 4 3 11 9 11 19 13 20 1 3 16 15 16 17 17 18 17 25 30 19 30 31 33 37 37 35 31 30 30 29 31 28 26 26 26
5 11 2 9 13 15 18 10 5 5 5 8 12 9 10 11 5 16 10 17 18 18 16 17 17 17 23 28 6 26 25 27 31 32 32 29 30 31 29 31 31 29 26 24
4 10 19 20 15 17 6 6 18 11 7 3 4 7 7 21 15 16 17 18 16 16 16 19 18 21 29 27 25 22 15 15 26 29 27 26 27 27 24 27 28 27 25 21
4 14 7 12 14 7 1 3 2 6 2 4 1 3 4 12 17 6 17 17 17 18 20 19 18 22 30 32 31 26 24 16 14 26 26 23 25 22 19 20 21 18 15 15
6 6 13 13 4 7 2 1 6 8 4 2 2 4 3 9 12 16 18 18 17 17 18 17 17 23 25 28 30 31 24 21 6 25 22 22 19 18 16 15 12 11 13 14
6 5 7 17 18 7 13 10 12 3 2 4 5 2 7 8 6 17 19 18 16 18 18 17 17 24 26 29 31 29 31 18 9 18 24 19 17 13 11 8 7 9 11 13
3 3 5 9 2 3 4 9 6 4 6 3 2 2 8 11 19 19 19 17 19 19 19 18 18 18 24 27 28 28 29 31 7 14 17 18 17 14 13 13 8 10 12 13
2 6 10 7 6 8 6 17 11 5 4 1 4 9 16 17 18 20 20 18 16 16 18 17 17 17 24 27 28 29 30 30 26 10 14 15 14 13 13 11 10 13 14 13
3 7 12 19 21 15 15 20 15 10 4 3 11 20 13 16 16 17 15 16 18 19 19 17 17 16 23 26 27 27 27 29 28 6 10 13 14 13 13 12 12 14 15 14
3 5 7 20 18 15 6 12 19 12 15 10 12 15 11 14 14 16 16 17 18 17 18 18 18 16 21 25 25 24 25 29 28 25 9 6 10 13 11 13 12 15 14 14
4 3 4 8 20 15 11 17 20 19 20 13 14 8 8 12 15 16 16 16 16 16 17 17 17 17 22 24 25 23 22 28 30 30 26 13 15 14 15 17 17 16 15 14
4 4 2 3 3 7 7 18 23 25 17 15 12 12 10 14 15 16 15 15 15 15 15 15 17 21 25 26 27 23 23 29 32 30 29 25 16 16 15 19 19 19 19 20
10 2 4 3 4 6 12 13 10 10 10 16 15 15 11 7 5 17 16 14 14 14 16 17 21 22 24 28 28 25 26 27 32 32 29 28 24 21 21 22 21 18 20 22
2 6 3 2 5 4 3 21 17 8 6 15 15 15 13 11 7 7 13 13 13 20 21 20 21 23 29 30 28 29 29 30 29 27 31 30 29 25 30 28 27 24 26 27
5 5 7 5 4 4 16 22 15 6 3 11 12 12 12 10 6 6 9 12 18 18 22 22 24 26 28 26 27 29 30 32 28 29 27 36 34 26 27 32 32 32 31 31
7 5 5 4 5 2 21 6 6 5 11 10 11 9 10 9 9 9 10 11 16 17 21 24 22 24 27 31 26 28 30 27 31 34 34 37 35 29 27 32 32 31 28 28
5 5 3 5 4 6 10 12 11 10 9 11 10 10 8 9 8 9 9 10 15 18 18 20 22 24 28 32 30 28 27 30 31 33 33 36 37 32 33 30 27 31 28 26
7 10 4 2 7 10 10 11 11 9 10 10 10 9 9 10 8 9 9 10 13 18 20 21 22 25 28 33 31 31 28 28 24 29 31 30 32 32 36 33 33 28 23 22
3 6 6 6 9 10 9 8 8 9 10 11 9 10 10 10 11 9 9 12 15 16 17 20 21 23 26 28 32 32 29 26 26 26 22 27 27 29 30 34 32 29 31 28
4 3 3 2 5 7 5 6 7 8 10 9 8 10 13 13 10 12 12 15 16 17 19 20 21 21 23 25 27 28 27 26 24 22 22 23 19 24 23 23 28 31 30 30
Wind_Direction
273 256 231 225 224 246 261 268 276 269 278 246 246 259 268 248 266 267 259 256 273 280 245 239 239 236 226 226 225 209 189 191 181 175 176 183 190 191 204 213 212 204 203 205
252 255 273 241 239 246 246 249 258 271 275 275 283 280 268 271 262 269 252 263 260 267 281 284 278 260 244 227 218 201 182 184 182 182 184 184 184 195 206 207 212 211 211 208
252 267 283 266 260 252 249 257 266 267 267 247 299 292 291 276 275 273 273 256 262 259 260 255 262 256 250 226 217 183 175 180 177 178 172 170 176 182 199 213 205 205 208 213
269 287 289 287 280 274 276 258 260 267 269 251 211 276 267 267 255 266 265 261 234 231 243 232 228 222 239 238 217 180 172 173 176 177 171 174 178 186 201 204 207 212 215 219
268 266 267 270 277 289 277 279 299 267 262 252 248 271 276 258 274 279 290 229 228 220 111 31 8 340 306 293 272 177 173 174 176 183 186 177 181 193 197 193 196 215 222 222
274 277 252 274 289 281 283 287 217 279 294 247 241 234 267 249 250 295 145 85 76 55 43 35 21 7 350 335 279 197 169 169 177 184 187 184 184 183 174 191 199 204 214 215
314 297 294 287 288 282 282 265 258 240 210 247 211 232 242 263 250 99 60 73 57 48 33 24 16 2 341 323 283 194 165 164 174 180 184 187 185 185 193 203 198 196 199 207
317 313 2 326 313 283 262 214 201 207 214 256 215 250 245 248 216 103 33 73 53 36 30 26 9 359 346 339 214 174 151 157 172 179 183 183 195 190 196 206 203 204 197 204
306 273 320 287 310 286 194 184 199 268 309 232 232 273 35 358 50 18 89 64 54 39 28 21 9 360 358 358 357 37 80 160 177 186 190 191 190 190 199 192 199 204 209 209
291 301 293 306 355 292 236 105 131 232 274 248 181 281 81 33 19 341 55 57 48 37 27 15 8 3 358 357 353 3 11 17 193 186 186 178 175 179 168 167 173 185 206 221
290 247 287 299 212 239 41 176 213 217 215 280 304 79 66 33 18 59 63 55 46 39 29 16 4 0 2 2 2 360 6 359 133 169 158 147 144 146 159 173 204 226 224 224
28 273 277 280 269 269 249 211 213 120 257 233 110 11 303 347 54 52 54 50 52 42 28 14 8 0 2 1 2 359 356 1 81 127 137 142 144 140 156 187 203 219 218 224
8 275 318 313 238 235 273 208 205 139 36 316 65 101 334 32 41 39 38 34 36 28 22 12 10 6 2 357 354 354 354 351 56 131 135 142 151 160 160 179 197 210 215 217
248 223 224 239 289 341 321 318 191 120 156 34 52 64 41 37 30 24 22 23 23 24 20 11 7 3 359 356 353 351 350 355 3 135 144 153 161 167 171 189 193 204 206 202
219 260 227 241 251 274 279 286 68 63 57 305 92 57 40 35 29 27 20 20 19 18 16 12 6 0 359 355 352 349 356 356 358 301 155 160 171 179 185 192 193 200 203 198
234 286 291 274 211 225 237 88 85 49 31 68 68 52 52 43 37 33 25 22 20 16 13 11 6 3 359 355 351 351 2 3 8 11 40 139 165 197 199 194 189 200 200 193
256 276 309 94 114 148 81 97 91 80 41 41 45 3 39 63 52 35 27 25 19 15 14 12 7 2 358 356 353 358 8 21 18 15 6 52 103 110 117 120 127 120 125 135
251 268 275 275 2 55 88 60 88 79 49 39 45 25 101 94 71 48 36 27 22 18 15 13 7 3 5 4 6 4 20 38 28 20 15 17 81 84 91 102 103 103 104 106
199 271 285 102 56 150 34 9 345 351 54 35 31 28 77 148 58 47 32 35 25 19 13 11 9 13 13 16 14 19 25 35 43 26 19 23 35 75 81 75 75 89 96 94
313 252 183 337 63 63 14 326 315 297 55 35 36 34 27 24 53 21 21 19 30 24 17 13 12 19 22 20 25 30 29 31 31 32 38 32 40 51 71 74 73 75 78 75
359 3 26 13 90 76 351 322 317 66 20 54 51 52 48 63 64 51 36 34 28 27 22 17 24 26 20 19 31 36 35 34 28 37 40 56 47 42 63 76 75 73 71 70
36 349 22 358 62 13 360 10 63 71 61 68 65 63 71 65 56 48 45 37 31 27 25 23 26 26 24 28 34 36 37 36 44 47 44 51 54 47 50 68 72 71 68 66
41 357 54 19 87 75 44 58 50 52 66 57 68 78 80 74 60 53 50 45 39 34 27 30 32 30 27 30 32 35 33 42 48 51 47 52 55 47 50 51 59 69 72 69
344 16 98 122 59 54 47 65 62 57 62 63 72 78 75 79 67 63 52 41 40 41 34 30 32 32 31 29 29 31 34 44 49 53 54 53 53 51 54 48 53 52 60 66
345 339 25 81 112 100 58 53 55 84 84 74 64 71 77 77 68 59 54 49 44 42 38 37 35 32 27 27 32 34 41 43 42 45 51 55 56 56 58 56 56 60 60 68
1 354 1 99 92 94 76 76 69 74 75 81 86 81 75 76 77 69 62 56 50 46 40 38 36 33 27 29 30 30 36 42 42 41 42 45 56 62 66 66 66 65 70 73